Moncks Corner, SC

2:24 PM EST on December 07, 2016 (GMT -0500)
Moncks Corner

Weather History for KMKS - October, 2013

Change the Weather History Date:

Monday, October 7, 2013

  Actual Average (KCHS) Record (KCHS)
Temperature  
Mean Temperature 78 °F 70 °F  
Max Temperature 82 °F 79 °F 91 °F (1951)
Min Temperature 73 °F 60 °F 44 °F (1978)
Degree Days  
Heating Degree Days 0 1  
Month to date heating degree days 7  
Since 1 July heating degree days 10  
Cooling Degree Days 12 6  
Month to date cooling degree days 45  
Year to date cooling degree days 2183  
Growing Degree Days 28 (Base 50)    
Moisture  
Dew Point 75 °F    
Average Humidity 97    
Maximum Humidity 100    
Minimum Humidity 79    
Precipitation  
Precipitation 0.84 in 0.14 in 4.70 in (2016)
Month to date precipitation 1.08  
Year to date precipitation 42.82  
Sea Level Pressure  
Sea Level Pressure 29.87 in    
Wind  
Wind Speed 1 mph (SE)    
Max Wind Speed 12 mph    
Max Gust Speed 18 mph    
Visibility 8 miles    
Events Rain , Thunderstorm    
T = Trace of Precipitation, MM = Missing Value Source: NWS Daily Summary

Daily Weather History Graph

Daily Weather History Graph

Search for Another Location

Airport or City:

Trip Planner

Search our weather history database for the weather conditions in past years. The results will help you decide how hot, cold, wet, or windy it might be!

Date:

Astronomy

Oct. 07, 2013 Rise Set
Actual Time 7:18 AM EDT 6:56 PM EDT
Civil Twilight 6:54 AM EDT 7:21 PM EDT
Nautical Twilight 6:25 AM EDT 7:49 PM EDT
Astronomical Twilight 5:56 AM EDT 8:18 PM EDT
Moon 9:57 AM EDT 8:50 PM EDT
Length of Visible Light 12h 27m
Length of Day
11h 37m
Waxing Crescent, 8% of the Moon is Illuminated
Oct 7
Waxing Crescent
Oct 11
First Quarter
Oct 18
Full
Oct 26
Last Quarter
Nov 3
New

Hourly Weather History & Observations

Time (EDT) Temp. Heat Index Dew Point Humidity Pressure Visibility Wind Dir Wind Speed Gust Speed Precip Events Conditions
12:15 AM 75.2 °F - 75.2 °F 100% 29.93 in 7.0 mi Calm Calm - N/A   Overcast
12:35 AM 75.2 °F - 73.4 °F 94% 29.93 in 10.0 mi Calm Calm - N/A   Mostly Cloudy
12:55 AM 75.2 °F - 73.4 °F 94% 29.92 in 10.0 mi Calm Calm - N/A   Mostly Cloudy
1:15 AM 75.2 °F - 73.4 °F 94% 29.92 in 7.0 mi Calm Calm - N/A   Mostly Cloudy
1:35 AM 73.4 °F - 73.4 °F 100% 29.91 in 10.0 mi Calm Calm - N/A   Scattered Clouds
1:55 AM 73.4 °F - 73.4 °F 100% 29.91 in 7.0 mi Calm Calm - N/A   Mostly Cloudy
2:15 AM 75.2 °F - 73.4 °F 94% 29.89 in 7.0 mi Calm Calm - N/A Rain Rain
2:35 AM 73.4 °F - 73.4 °F 100% 29.89 in 7.0 mi Calm Calm - N/A   Scattered Clouds
2:55 AM 73.4 °F - 73.4 °F 100% 29.89 in 10.0 mi Calm Calm - N/A   Scattered Clouds
3:15 AM 73.4 °F - 73.4 °F 100% 29.88 in 7.0 mi Calm Calm - N/A   Mostly Cloudy
3:35 AM 73.4 °F - 73.4 °F 100% 29.87 in 3.0 mi Calm Calm - 0.10 in Rain Heavy Rain
3:55 AM 73.4 °F - 73.4 °F 100% 29.87 in 7.0 mi SSE 3.5 mph - 0.12 in   Mostly Cloudy
4:15 AM 73.4 °F - 73.4 °F 100% 29.87 in 10.0 mi Calm Calm - N/A   Scattered Clouds
4:35 AM 75.2 °F - 75.2 °F 100% 29.87 in 10.0 mi Calm Calm - N/A   Mostly Cloudy
4:55 AM 75.2 °F - 75.2 °F 100% 29.87 in 7.0 mi Calm Calm - 0.01 in   Mostly Cloudy
5:15 AM 75.2 °F - 75.2 °F 100% 29.87 in 10.0 mi SSE 5.8 mph - N/A Rain Light Rain
5:35 AM 75.2 °F - 75.2 °F 100% 29.87 in 7.0 mi SSE 3.5 mph - N/A   Overcast
5:55 AM 75.2 °F - 75.2 °F 100% 29.87 in 7.0 mi Calm Calm - N/A Rain Light Rain
6:15 AM 75.2 °F - 75.2 °F 100% 29.86 in 2.0 mi SE 3.5 mph - N/A Thunderstorm Overcast
6:35 AM 73.4 °F - 73.4 °F 100% 29.87 in 3.0 mi SSE 11.5 mph 18.4 mph 0.13 in Rain Heavy Rain
6:55 AM 73.4 °F - 73.4 °F 100% 29.87 in 10.0 mi SSE 3.5 mph - 0.21 in   Overcast
7:15 AM 75.2 °F - 73.4 °F 94% 29.87 in 10.0 mi Calm Calm - N/A Rain Light Rain
7:35 AM 75.2 °F - 75.2 °F 100% 29.87 in 7.0 mi Calm Calm - 0.02 in Rain , Thunderstorm Rain
7:55 AM 73.4 °F - 73.4 °F 100% 29.88 in 5.0 mi Calm Calm - 0.06 in Rain Rain
8:15 AM 73.4 °F - 73.4 °F 100% 29.89 in 10.0 mi Calm Calm - N/A Rain Light Rain
8:35 AM 73.4 °F - 73.4 °F 100% 29.89 in 3.0 mi SSE 4.6 mph - 0.10 in Rain Heavy Rain
8:55 AM 75.2 °F - 75.2 °F 100% 29.89 in 7.0 mi SSE 4.6 mph - 0.12 in Thunderstorm Overcast
9:15 AM 75.2 °F - 75.2 °F 100% 29.89 in 3.0 mi SE 5.8 mph - 0.09 in Rain Light Rain
9:35 AM 75.2 °F - 75.2 °F 100% 29.90 in 1.0 mi SSE 3.5 mph - 0.22 in Rain Light Rain
9:55 AM 75.2 °F - 75.2 °F 100% 29.90 in 10.0 mi Calm Calm - 0.23 in   Overcast
10:15 AM 75.2 °F - 75.2 °F 100% 29.90 in 4.0 mi SSE 3.5 mph - 0.02 in Rain , Thunderstorm Rain
10:35 AM 75.2 °F - 75.2 °F 100% 29.90 in 3.0 mi Calm Calm - 0.06 in Rain Rain
10:55 AM 75.2 °F - 75.2 °F 100% 29.90 in 10.0 mi SSE 3.5 mph - 0.06 in   Overcast
11:15 AM 77.0 °F - 77.0 °F 100% 29.89 in 10.0 mi SSE 5.8 mph - N/A   Overcast
11:35 AM 77.0 °F - 75.2 °F 94% 29.87 in 7.0 mi Calm Calm - N/A   Mostly Cloudy
11:55 AM 77.0 °F - 75.2 °F 94% 29.88 in 10.0 mi ESE 3.5 mph - N/A Thunderstorm Mostly Cloudy
12:15 PM 78.8 °F - 77.0 °F 94% 29.87 in 10.0 mi Calm Calm - N/A   Overcast
12:35 PM 78.8 °F - 75.2 °F 89% 29.87 in 10.0 mi Calm Calm - N/A   Mostly Cloudy
12:55 PM 78.8 °F - 75.2 °F 89% 29.87 in 10.0 mi ESE 3.5 mph - N/A Rain , Thunderstorm Light Thunderstorms and Rain
1:15 PM 78.8 °F - 77.0 °F 94% 29.87 in 10.0 mi Calm Calm - N/A   Scattered Clouds
1:35 PM 80.6 °F 87.1 °F 77.0 °F 89% 29.86 in 10.0 mi SE 4.6 mph - N/A   Mostly Cloudy
1:55 PM 80.6 °F 87.1 °F 77.0 °F 89% 29.85 in 10.0 mi South 4.6 mph - N/A   Scattered Clouds
2:15 PM 80.6 °F 86.2 °F 75.2 °F 84% 29.85 in 10.0 mi Calm Calm - N/A   Scattered Clouds
2:35 PM 78.8 °F - 75.2 °F 89% 29.83 in 5.0 mi Calm Calm - 0.01 in Rain Heavy Rain
2:55 PM 78.8 °F - 77.0 °F 94% 29.82 in 10.0 mi WSW 3.5 mph - 0.02 in   Scattered Clouds
3:15 PM 82.4 °F 89.5 °F 75.2 °F 79% 29.81 in 10.0 mi Calm Calm - N/A   Clear
3:35 PM 82.4 °F 89.5 °F 75.2 °F 79% 29.82 in 10.0 mi Calm Calm - N/A   Clear
3:55 PM 80.6 °F 86.2 °F 75.2 °F 84% 29.82 in 10.0 mi Calm Calm - N/A   Clear
4:15 PM 80.6 °F 87.1 °F 77.0 °F 89% 29.83 in 10.0 mi Calm Calm - N/A   Scattered Clouds
4:35 PM 78.8 °F - 75.2 °F 89% 29.83 in 10.0 mi Calm Calm - N/A   Scattered Clouds
4:55 PM 78.8 °F - 75.2 °F 89% 29.83 in 10.0 mi Calm Calm - N/A   Scattered Clouds
5:15 PM 78.8 °F - 77.0 °F 94% 29.83 in 10.0 mi Calm Calm - N/A   Clear
5:35 PM 77.0 °F - 77.0 °F 100% 29.82 in 7.0 mi Calm Calm - N/A   Clear
5:55 PM 77.0 °F - 77.0 °F 100% 29.82 in 10.0 mi Calm Calm - N/A   Clear
6:15 PM 77.0 °F - 77.0 °F 100% 29.82 in 7.0 mi Calm Calm - N/A   Clear
6:35 PM 77.0 °F - 77.0 °F 100% 29.83 in 10.0 mi Calm Calm - N/A Rain Light Rain
6:55 PM 77.0 °F - 77.0 °F 100% 29.84 in 10.0 mi Calm Calm - N/A Rain Light Rain
7:15 PM 77.0 °F - 77.0 °F 100% 29.84 in 10.0 mi Calm Calm - N/A   Light Drizzle
7:35 PM 77.0 °F - 77.0 °F 100% 29.84 in 7.0 mi Calm Calm - N/A   Clear
7:55 PM 75.2 °F - 75.2 °F 100% 29.85 in 10.0 mi Calm Calm - N/A   Scattered Clouds
8:15 PM 75.2 °F - 75.2 °F 100% 29.85 in 10.0 mi North 4.6 mph - N/A   Overcast
8:35 PM 75.2 °F - 75.2 °F 100% 29.85 in 10.0 mi Calm Calm - N/A   Mostly Cloudy
8:55 PM 75.2 °F - 75.2 °F 100% 29.86 in 7.0 mi Calm Calm - N/A   Mostly Cloudy
9:15 PM 75.2 °F - 75.2 °F 100% 29.86 in 5.0 mi Calm Calm - N/A   Scattered Clouds
9:35 PM 75.2 °F - 75.2 °F 100% 29.87 in 7.0 mi Calm Calm - N/A   Clear
9:55 PM 75.2 °F - 75.2 °F 100% 29.88 in 7.0 mi Calm Calm - N/A   Clear
10:15 PM 75.2 °F - 75.2 °F 100% 29.87 in 7.0 mi Calm Calm - N/A   Clear
10:35 PM 75.2 °F - 75.2 °F 100% 29.87 in 7.0 mi North 3.5 mph - 0.01 in   Scattered Clouds
11:15 PM 75.2 °F - 75.2 °F 100% 29.88 in 7.0 mi North 4.6 mph - N/A   Scattered Clouds
11:55 PM 75.2 °F - 75.2 °F 100% 29.89 in 7.0 mi North 4.6 mph - N/A   Overcast